Solander Island, British Columbia

10:51 PM PDT on October 17, 2017 (GMT -0700)
Solander Island

Weather History for CWRU - January, 2013

Change the Weather History Date:

Thursday, January 3, 2013

  Actual Average Record
Temperature  
Mean Temperature 44 °F -  
Max Temperature 46 °F - - ()
Min Temperature 43 °F - - ()
Degree Days  
Heating Degree Days 20    
Moisture  
Dew Point 37 °F    
Average Humidity 73    
Maximum Humidity 95    
Minimum Humidity 51    
Precipitation  
Precipitation 0.02 in - - ()
Sea Level Pressure  
Sea Level Pressure 29.94 in    
Wind  
Wind Speed 33 mph ()    
Max Wind Speed 50 mph    
Max Gust Speed 58 mph    
T = Trace of Precipitation, MM = Missing Value Source: Averaged Metar Reports

Daily Weather History Graph

Daily Weather History Graph

Search for Another Location

Airport or City:

Trip Planner

Search our weather history database for the weather conditions in past years. The results will help you decide how hot, cold, wet, or windy it might be!

Date:

Astronomy

Jan. 03, 2013 Rise Set
Actual Time 8:30 AM PST 4:42 PM PST
Civil Twilight 7:52 AM PST 5:20 PM PST
Nautical Twilight 7:10 AM PST 6:02 PM PST
Astronomical Twilight 6:31 AM PST 6:41 PM PST
Moon No Moon Rise 11:04 AM PST (1/3)
Length of Visible Light 9h 28m
Length of Day
8h 12m
Waning Gibbous, 64% of the Moon is Illuminated
Jan 3
Waning Gibbous
Jan 4
Last Quarter
Jan 11
New
Jan 18
First Quarter
Jan 26
Full

Hourly Weather History & Observations

Time (PST) Temp. Windchill Dew Point Humidity Pressure Visibility Wind Dir Wind Speed Gust Speed Precip Events Conditions
12:00 AM 45.5 °F 35.0 °F 37.9 °F 75% 30.05 in - ESE 36.8 mph 43.7 mph N/A   Unknown
1:00 AM 45.1 °F 34.8 °F 34.5 °F 66% 30.02 in - ESE 34.5 mph - N/A   Unknown
2:00 AM 45.9 °F 35.8 °F 31.3 °F 57% 30.01 in - ESE 34.5 mph 40.3 mph N/A   Unknown
3:00 AM 46.0 °F 36.1 °F 36.3 °F 69% 30.01 in - ESE 34.5 mph 41.4 mph N/A   Unknown
4:00 AM 46 °F - 34 °F 51% 29.99 in - East 34.5 mph - -  
4:00 AM 45.5 °F 35.3 °F 33.6 °F 63% 29.99 in - East 34.5 mph 40.3 mph N/A   Unknown
5:00 AM 45.5 °F 35.8 °F 33.6 °F 63% 29.99 in - ESE 31.1 mph - N/A   Unknown
6:00 AM 45.9 °F 36.3 °F 31.8 °F 58% 29.98 in - ESE 31.1 mph 39.1 mph N/A   Unknown
8:00 AM 45.1 °F 35.3 °F 31.8 °F 60% 29.94 in - ESE 31.1 mph 40.3 mph N/A   Unknown
9:00 AM 43.9 °F 32.9 °F 36.9 °F 76% 29.94 in - ESE 35.7 mph 42.6 mph N/A   Unknown
10:00 AM 44 °F - 38 °F 71% 29.95 in - East 33.4 mph - -  
10:00 AM 43.7 °F 33.0 °F 37.6 °F 79% 29.95 in - East 33.4 mph 41.4 mph N/A   Unknown
11:00 AM 43.9 °F 33.4 °F 35.4 °F 72% 29.95 in - ESE 32.2 mph 40.3 mph N/A   Unknown
12:00 PM 44.8 °F 34.2 °F 35.6 °F 70% 29.93 in - ESE 35.7 mph 46.0 mph N/A   Unknown
1:00 PM 45.7 °F 34.8 °F 36.3 °F 70% 29.91 in - ESE 40.3 mph 48.3 mph N/A   Unknown
2:00 PM 46.8 °F - 34.5 °F 62% 29.88 in - ESE 35.7 mph 48.3 mph N/A   Unknown
3:00 PM 46.8 °F - 36.0 °F 66% 29.89 in - ESE 35.7 mph 49.5 mph N/A   Unknown
4:00 PM 43 °F - 38 °F 74% 29.89 in - ESE 35.7 mph - -  
4:00 PM 43.2 °F 31.9 °F 37.6 °F 81% 29.89 in - ESE 35.7 mph 50.6 mph 0.02 in   Unknown
5:00 PM 43.7 °F 31.8 °F 38.7 °F 82% 29.89 in - ESE 42.6 mph 52.9 mph 0.02 in   Unknown
6:00 PM 43.9 °F 31.7 °F 38.5 °F 81% 29.89 in - ESE 46.0 mph 54.1 mph N/A   Unknown
7:00 PM 44.6 °F 32.3 °F 37.9 °F 77% 29.88 in - ESE 49.5 mph 55.2 mph N/A   Unknown
8:00 PM 43.9 °F 31.5 °F 39.7 °F 85% 29.88 in - ESE 47.2 mph 57.5 mph N/A   Unknown
9:00 PM 44.2 °F 31.8 °F 39.0 °F 82% 29.88 in - ESE 49.5 mph 57.5 mph N/A   Unknown
10:00 PM 44 °F - 41 °F 85% 29.92 in - ESE 43.7 mph - -  
10:00 PM 43.7 °F 31.7 °F 41.0 °F 90% 29.92 in - ESE 43.7 mph 54.1 mph N/A   Unknown
11:00 PM 43.2 °F 31.1 °F 41.7 °F 95% 29.92 in - ESE 42.6 mph 50.6 mph 0.04 in   Unknown